Year,Month,Day,Hour,Minute,Value (Times are PST for temperature in C)
2009,09,22,00,00,13.20
2009,09,22,00,01,13.20
2009,09,22,00,02,13.20
2009,09,22,00,03,13.20
2009,09,22,00,04,13.20
2009,09,22,00,05,13.20
2009,09,22,00,06,13.20
2009,09,22,00,07,13.10
2009,09,22,00,08,13.10
2009,09,22,00,09,13.10
2009,09,22,00,10,13.20
2009,09,22,00,11,13.20
2009,09,22,00,12,13.20
2009,09,22,00,13,13.20
2009,09,22,00,14,13.10
2009,09,22,00,15,13.10
2009,09,22,00,16,13.10
2009,09,22,00,17,13.10
2009,09,22,00,18,13.10
2009,09,22,00,19,13.10
2009,09,22,00,20,13.00
2009,09,22,00,21,13.00
2009,09,22,00,22,13.00
2009,09,22,00,23,12.90
2009,09,22,00,24,12.90
2009,09,22,00,25,12.90
2009,09,22,00,26,12.90
2009,09,22,00,27,12.80
2009,09,22,00,28,12.80
2009,09,22,00,29,12.80
2009,09,22,00,30,12.80
2009,09,22,00,31,12.80
2009,09,22,00,32,12.80
2009,09,22,00,33,12.80
2009,09,22,00,34,12.80
2009,09,22,00,35,12.80
2009,09,22,00,36,12.90
2009,09,22,00,37,12.90
2009,09,22,00,38,12.90
2009,09,22,00,39,12.90
2009,09,22,00,40,12.90
2009,09,22,00,41,12.90
2009,09,22,00,42,13.00
2009,09,22,00,43,13.00
2009,09,22,00,44,13.10
2009,09,22,00,45,13.10
2009,09,22,00,46,13.10
2009,09,22,00,47,13.10
2009,09,22,00,48,13.10
2009,09,22,00,49,13.10
2009,09,22,00,50,13.10
2009,09,22,00,51,13.10
2009,09,22,00,52,13.10
2009,09,22,00,53,13.10
2009,09,22,00,54,13.10
2009,09,22,00,55,13.20
2009,09,22,00,56,13.20
2009,09,22,00,57,13.20
2009,09,22,00,58,13.20
2009,09,22,00,59,13.20
2009,09,22,01,00,13.20
2009,09,22,01,01,13.20
2009,09,22,01,02,13.20
2009,09,22,01,03,13.30
2009,09,22,01,04,13.30
2009,09,22,01,05,13.40
2009,09,22,01,06,13.40
2009,09,22,01,07,13.40
2009,09,22,01,08,13.40
2009,09,22,01,09,13.40
2009,09,22,01,10,13.40
2009,09,22,01,11,13.40
2009,09,22,01,12,13.40
2009,09,22,01,13,13.40
2009,09,22,01,14,13.30
2009,09,22,01,15,13.30
2009,09,22,01,16,13.30
2009,09,22,01,17,13.30
2009,09,22,01,18,13.30
2009,09,22,01,19,13.30
2009,09,22,01,20,13.30
2009,09,22,01,21,13.30
2009,09,22,01,22,13.30
2009,09,22,01,23,13.30
2009,09,22,01,24,13.30
2009,09,22,01,25,13.30
2009,09,22,01,26,13.40
2009,09,22,01,27,13.40
2009,09,22,01,28,13.40
2009,09,22,01,29,13.40
2009,09,22,01,30,13.40
2009,09,22,01,31,13.40
2009,09,22,01,32,13.40
2009,09,22,01,33,13.40
2009,09,22,01,34,13.40
2009,09,22,01,35,13.40
2009,09,22,01,36,13.40
2009,09,22,01,37,13.40
2009,09,22,01,38,13.40
2009,09,22,01,39,13.40
2009,09,22,01,40,13.40
2009,09,22,01,41,13.30
2009,09,22,01,42,13.30
2009,09,22,01,43,13.30
2009,09,22,01,44,13.30
2009,09,22,01,45,13.30
2009,09,22,01,46,13.30
2009,09,22,01,47,13.30
2009,09,22,01,48,13.30
2009,09,22,01,49,13.30
2009,09,22,01,50,13.30
2009,09,22,01,51,13.30
2009,09,22,01,52,13.30
2009,09,22,01,53,13.30
2009,09,22,01,54,13.20
2009,09,22,01,55,13.20
2009,09,22,01,56,13.20
2009,09,22,01,57,13.10
2009,09,22,01,58,13.10
2009,09,22,01,59,13.10
2009,09,22,02,00,13.10
2009,09,22,02,01,13.00
2009,09,22,02,02,13.00
2009,09,22,02,03,13.00
2009,09,22,02,04,13.00
2009,09,22,02,05,12.90
2009,09,22,02,06,12.90
2009,09,22,02,07,12.90
2009,09,22,02,08,12.90
2009,09,22,02,09,12.80
2009,09,22,02,10,12.80
2009,09,22,02,11,12.70
2009,09,22,02,12,12.70
2009,09,22,02,13,12.70
2009,09,22,02,14,12.70
2009,09,22,02,15,12.70
2009,09,22,02,16,12.70
2009,09,22,02,17,12.70
2009,09,22,02,18,12.70
2009,09,22,02,19,12.70
2009,09,22,02,20,12.80
2009,09,22,02,21,12.80
2009,09,22,02,22,12.90
2009,09,22,02,23,12.90
2009,09,22,02,24,13.00
2009,09,22,02,25,13.10
2009,09,22,02,26,13.10
2009,09,22,02,27,13.10
2009,09,22,02,28,13.00
2009,09,22,02,29,13.00
2009,09,22,02,30,12.90
2009,09,22,02,31,12.80
2009,09,22,02,32,12.80
2009,09,22,02,33,12.70
2009,09,22,02,34,12.70
2009,09,22,02,35,12.70
2009,09,22,02,36,12.70
2009,09,22,02,37,12.70
2009,09,22,02,38,12.60
2009,09,22,02,39,12.60
2009,09,22,02,40,12.60
2009,09,22,02,41,12.60
2009,09,22,02,42,12.60
2009,09,22,02,43,12.70
2009,09,22,02,44,12.70
2009,09,22,02,45,12.70
2009,09,22,02,46,12.70
2009,09,22,02,47,12.70
2009,09,22,02,48,12.70
2009,09,22,02,49,12.70
2009,09,22,02,50,12.70
2009,09,22,02,51,12.80
2009,09,22,02,52,12.80
2009,09,22,02,53,12.90
2009,09,22,02,54,12.90
2009,09,22,02,55,13.00
2009,09,22,02,56,13.10
2009,09,22,02,57,13.10
2009,09,22,02,58,13.10
2009,09,22,02,59,13.10
2009,09,22,03,00,13.10
2009,09,22,03,01,13.10
2009,09,22,03,02,13.10
2009,09,22,03,03,13.00
2009,09,22,03,04,13.10
2009,09,22,03,05,13.10
2009,09,22,03,06,13.10
2009,09,22,03,07,13.10
2009,09,22,03,08,13.20
2009,09,22,03,09,13.20
2009,09,22,03,10,13.20
2009,09,22,03,11,13.20
2009,09,22,03,12,13.10
2009,09,22,03,13,13.10
2009,09,22,03,14,13.10
2009,09,22,03,15,13.10
2009,09,22,03,16,13.10
2009,09,22,03,17,13.10
2009,09,22,03,18,13.10
2009,09,22,03,19,13.10
2009,09,22,03,20,13.20
2009,09,22,03,21,13.10
2009,09,22,03,22,13.10
2009,09,22,03,23,13.10
2009,09,22,03,24,13.10
2009,09,22,03,25,13.10
2009,09,22,03,26,13.10
2009,09,22,03,27,13.10
2009,09,22,03,28,13.00
2009,09,22,03,29,13.00
2009,09,22,03,30,12.90
2009,09,22,03,31,12.80
2009,09,22,03,32,12.80
2009,09,22,03,33,12.90
2009,09,22,03,34,12.90
2009,09,22,03,35,13.00
2009,09,22,03,36,13.00
2009,09,22,03,37,13.00
2009,09,22,03,38,13.10
2009,09,22,03,39,13.10
2009,09,22,03,40,13.10
2009,09,22,03,41,13.10
2009,09,22,03,42,13.00
2009,09,22,03,43,13.00
2009,09,22,03,44,13.00
2009,09,22,03,45,12.90
2009,09,22,03,46,12.80
2009,09,22,03,47,12.80
2009,09,22,03,48,12.80
2009,09,22,03,49,12.70
2009,09,22,03,50,12.70
2009,09,22,03,51,12.70
2009,09,22,03,52,12.60
2009,09,22,03,53,12.70
2009,09,22,03,54,12.60
2009,09,22,03,55,12.60
2009,09,22,03,56,12.60
2009,09,22,03,57,12.70
2009,09,22,03,58,12.70
2009,09,22,03,59,12.70
2009,09,22,04,00,12.80
2009,09,22,04,01,12.90
2009,09,22,04,02,12.90
2009,09,22,04,03,12.90
2009,09,22,04,04,13.00
2009,09,22,04,05,13.10
2009,09,22,04,06,13.10
2009,09,22,04,07,13.10
2009,09,22,04,08,13.00
2009,09,22,04,09,13.00
2009,09,22,04,10,12.90
2009,09,22,04,11,12.90
2009,09,22,04,12,12.90
2009,09,22,04,13,12.80
2009,09,22,04,14,12.80
2009,09,22,04,15,12.80
2009,09,22,04,16,12.80
2009,09,22,04,17,12.80
2009,09,22,04,18,12.90
2009,09,22,04,19,13.00
2009,09,22,04,20,13.10
2009,09,22,04,21,13.30
2009,09,22,04,22,13.40
2009,09,22,04,23,13.50
2009,09,22,04,24,13.70
2009,09,22,04,25,13.70
2009,09,22,04,26,13.80
2009,09,22,04,27,13.80
2009,09,22,04,28,13.70
2009,09,22,04,29,13.70
2009,09,22,04,30,13.60
2009,09,22,04,31,13.50
2009,09,22,04,32,13.40
2009,09,22,04,33,13.30
2009,09,22,04,34,13.30
2009,09,22,04,35,13.30
2009,09,22,04,36,13.30
2009,09,22,04,37,13.30
2009,09,22,04,38,13.20
2009,09,22,04,39,13.20
2009,09,22,04,40,13.10
2009,09,22,04,41,13.00
2009,09,22,04,42,13.00
2009,09,22,04,43,12.90
2009,09,22,04,44,12.90
2009,09,22,04,45,12.80
2009,09,22,04,46,12.80
2009,09,22,04,47,12.80
2009,09,22,04,48,12.70
2009,09,22,04,49,12.70
2009,09,22,04,50,12.70
2009,09,22,04,51,12.80
2009,09,22,04,52,12.80
2009,09,22,04,53,12.80
2009,09,22,04,54,12.70
2009,09,22,04,55,12.70
2009,09,22,04,56,12.70
2009,09,22,04,57,12.70
2009,09,22,04,58,12.70
2009,09,22,04,59,12.70
2009,09,22,05,00,12.70
2009,09,22,05,01,12.70
2009,09,22,05,02,12.60
2009,09,22,05,03,12.60
2009,09,22,05,04,12.60
2009,09,22,05,05,12.60
2009,09,22,05,06,12.60
2009,09,22,05,07,12.60
2009,09,22,05,08,12.60
2009,09,22,05,09,12.50
2009,09,22,05,10,12.50
2009,09,22,05,11,12.50
2009,09,22,05,12,12.50
2009,09,22,05,13,12.50
2009,09,22,05,14,12.50
2009,09,22,05,15,12.50
2009,09,22,05,16,12.50
2009,09,22,05,17,12.40
2009,09,22,05,18,12.40
2009,09,22,05,19,12.50
2009,09,22,05,20,12.50
2009,09,22,05,21,12.50
2009,09,22,05,22,12.50
2009,09,22,05,23,12.50
2009,09,22,05,24,12.50
2009,09,22,05,25,12.50
2009,09,22,05,26,12.50
2009,09,22,05,27,12.50
2009,09,22,05,28,12.60
2009,09,22,05,29,12.60
2009,09,22,05,30,12.60
2009,09,22,05,31,12.50
2009,09,22,05,32,12.50
2009,09,22,05,33,12.40
2009,09,22,05,34,12.40
2009,09,22,05,35,12.40
2009,09,22,05,36,12.30
2009,09,22,05,37,12.30
2009,09,22,05,38,12.30
2009,09,22,05,39,12.30
2009,09,22,05,40,12.40
2009,09,22,05,41,12.40
2009,09,22,05,42,12.40
2009,09,22,05,43,12.40
2009,09,22,05,44,12.40
2009,09,22,05,45,12.40
2009,09,22,05,46,12.40
2009,09,22,05,47,12.40
2009,09,22,05,48,12.40
2009,09,22,05,49,12.40
2009,09,22,05,50,12.40
2009,09,22,05,51,12.40
2009,09,22,05,52,12.40
2009,09,22,05,53,12.40
2009,09,22,05,54,12.40
2009,09,22,05,55,12.30
2009,09,22,05,56,12.30
2009,09,22,05,57,12.30
2009,09,22,05,58,12.30
2009,09,22,05,59,12.30
2009,09,22,06,00,12.30
2009,09,22,06,01,12.30
2009,09,22,06,02,12.30
2009,09,22,06,03,12.30
2009,09,22,06,04,12.20
2009,09,22,06,05,12.20
2009,09,22,06,06,12.10
2009,09,22,06,07,12.10
2009,09,22,06,08,12.00
2009,09,22,06,09,12.00
2009,09,22,06,10,11.90
2009,09,22,06,11,11.90
2009,09,22,06,12,11.90
2009,09,22,06,13,11.90
2009,09,22,06,14,12.00
2009,09,22,06,15,12.10
2009,09,22,06,16,12.20
2009,09,22,06,17,12.30
2009,09,22,06,18,12.30
2009,09,22,06,19,12.40
2009,09,22,06,20,12.40
2009,09,22,06,21,12.40
2009,09,22,06,22,12.40
2009,09,22,06,23,12.40
2009,09,22,06,24,12.40
2009,09,22,06,25,12.40
2009,09,22,06,26,12.40
2009,09,22,06,27,12.40
2009,09,22,06,28,12.40
2009,09,22,06,29,12.30
2009,09,22,06,30,12.30
2009,09,22,06,31,12.30
2009,09,22,06,32,12.20
2009,09,22,06,33,12.20
2009,09,22,06,34,12.10
2009,09,22,06,35,12.10
2009,09,22,06,36,12.10
2009,09,22,06,37,12.00
2009,09,22,06,38,12.00
2009,09,22,06,39,12.00
2009,09,22,06,40,12.00
2009,09,22,06,41,11.90
2009,09,22,06,42,11.90
2009,09,22,06,43,11.90
2009,09,22,06,44,11.90
2009,09,22,06,45,11.90
2009,09,22,06,46,11.90
2009,09,22,06,47,11.90
2009,09,22,06,48,11.90
2009,09,22,06,49,11.90
2009,09,22,06,50,11.80
2009,09,22,06,51,11.80
2009,09,22,06,52,11.80
2009,09,22,06,53,11.80
2009,09,22,06,54,11.80
2009,09,22,06,55,11.80
2009,09,22,06,56,11.80
2009,09,22,06,57,11.80
2009,09,22,06,58,11.80
2009,09,22,06,59,11.80
2009,09,22,07,00,11.80
2009,09,22,07,01,11.80
2009,09,22,07,02,11.80
2009,09,22,07,03,11.80
2009,09,22,07,04,11.90
2009,09,22,07,05,11.90
2009,09,22,07,06,12.00
2009,09,22,07,07,12.00
2009,09,22,07,08,12.10
2009,09,22,07,09,12.20
2009,09,22,07,10,12.20
2009,09,22,07,11,12.20
2009,09,22,07,12,12.20
2009,09,22,07,13,12.20
2009,09,22,07,14,12.20
2009,09,22,07,15,12.20
2009,09,22,07,16,12.10
2009,09,22,07,17,12.10
2009,09,22,07,18,12.10
2009,09,22,07,19,12.00
2009,09,22,07,20,12.00
2009,09,22,07,21,12.00
2009,09,22,07,22,12.10
2009,09,22,07,23,12.10
2009,09,22,07,24,12.10
2009,09,22,07,25,12.10
2009,09,22,07,26,12.10
2009,09,22,07,27,12.10
2009,09,22,07,28,12.10
2009,09,22,07,29,12.10
2009,09,22,07,30,12.20
2009,09,22,07,31,12.20
2009,09,22,07,32,12.20
2009,09,22,07,33,12.20
2009,09,22,07,34,12.20
2009,09,22,07,35,12.30
2009,09,22,07,36,12.30
2009,09,22,07,37,12.40
2009,09,22,07,38,12.40
2009,09,22,07,39,12.50
2009,09,22,07,40,12.60
2009,09,22,07,41,12.60
2009,09,22,07,42,12.70
2009,09,22,07,43,12.70
2009,09,22,07,44,12.70
2009,09,22,07,45,12.70
2009,09,22,07,46,12.80
2009,09,22,07,47,12.80
2009,09,22,07,48,12.80
2009,09,22,07,49,12.90
2009,09,22,07,50,13.00
2009,09,22,07,51,13.10
2009,09,22,07,52,13.10
2009,09,22,07,53,13.20
2009,09,22,07,54,13.30
2009,09,22,07,55,13.30
2009,09,22,07,56,13.30
2009,09,22,07,57,13.30
2009,09,22,07,58,13.30
2009,09,22,07,59,13.40
2009,09,22,08,00,13.40
2009,09,22,08,01,13.40
2009,09,22,08,02,13.40
2009,09,22,08,03,13.40
2009,09,22,08,04,13.50
2009,09,22,08,05,13.50
2009,09,22,08,06,13.60
2009,09,22,08,07,13.70
2009,09,22,08,08,13.70
2009,09,22,08,09,13.80
2009,09,22,08,10,14.00
2009,09,22,08,11,14.20
2009,09,22,08,12,14.40
2009,09,22,08,13,14.50
2009,09,22,08,14,14.70
2009,09,22,08,15,14.80
2009,09,22,08,16,15.00
2009,09,22,08,17,15.10
2009,09,22,08,18,15.30
2009,09,22,08,19,15.40
2009,09,22,08,20,15.50
2009,09,22,08,21,15.60
2009,09,22,08,22,15.70
2009,09,22,08,23,15.80
2009,09,22,08,24,15.90
2009,09,22,08,25,15.90
2009,09,22,08,26,16.00
2009,09,22,08,27,16.10
2009,09,22,08,28,16.20
2009,09,22,08,29,16.30
2009,09,22,08,30,16.40
2009,09,22,08,31,16.50
2009,09,22,08,32,16.50
2009,09,22,08,33,16.60
2009,09,22,08,34,16.70
2009,09,22,08,35,16.70
2009,09,22,08,36,16.80
2009,09,22,08,37,16.80
2009,09,22,08,38,16.90
2009,09,22,08,39,16.90
2009,09,22,08,40,17.00
2009,09,22,08,41,17.10
2009,09,22,08,42,17.10
2009,09,22,08,43,17.20
2009,09,22,08,44,17.20
2009,09,22,08,45,17.30
2009,09,22,08,46,17.30
2009,09,22,08,47,17.30
2009,09,22,08,48,17.40
2009,09,22,08,49,17.40
2009,09,22,08,50,17.40
2009,09,22,08,51,17.50
2009,09,22,08,52,17.50
2009,09,22,08,53,17.50
2009,09,22,08,54,17.60
2009,09,22,08,55,17.60
2009,09,22,08,56,17.70
2009,09,22,08,57,17.70
2009,09,22,08,58,17.80
2009,09,22,08,59,17.80
2009,09,22,09,00,17.90
2009,09,22,09,01,18.00
2009,09,22,09,02,18.10
2009,09,22,09,03,18.10
2009,09,22,09,04,18.20
2009,09,22,09,05,18.30
2009,09,22,09,06,18.30
2009,09,22,09,07,18.40
2009,09,22,09,08,18.50
2009,09,22,09,09,18.50
2009,09,22,09,10,18.60
2009,09,22,09,11,18.60
2009,09,22,09,12,18.70
2009,09,22,09,13,18.80
2009,09,22,09,14,18.80
2009,09,22,09,15,18.90
2009,09,22,09,16,18.90
2009,09,22,09,17,18.90
2009,09,22,09,18,18.90
2009,09,22,09,19,18.90
2009,09,22,09,20,19.00
2009,09,22,09,21,19.00
2009,09,22,09,22,19.00
2009,09,22,09,23,19.00
2009,09,22,09,24,19.00
2009,09,22,09,25,19.00
2009,09,22,09,26,19.00
2009,09,22,09,27,19.00
2009,09,22,09,28,19.00
2009,09,22,09,29,19.00
2009,09,22,09,30,19.00
2009,09,22,09,31,19.00
2009,09,22,09,32,19.00
2009,09,22,09,33,18.90
2009,09,22,09,34,18.90
2009,09,22,09,35,18.90
2009,09,22,09,36,18.90
2009,09,22,09,37,18.90
2009,09,22,09,38,18.90
2009,09,22,09,39,18.90
2009,09,22,09,40,18.90
2009,09,22,09,41,18.90
2009,09,22,09,42,18.90
2009,09,22,09,43,18.90
2009,09,22,09,44,18.90
2009,09,22,09,45,18.90
2009,09,22,09,46,19.00
2009,09,22,09,47,19.10
2009,09,22,09,48,19.10
2009,09,22,09,49,19.20
2009,09,22,09,50,19.30
2009,09,22,09,51,19.30
2009,09,22,09,52,19.40
2009,09,22,09,53,19.40
2009,09,22,09,54,19.50
2009,09,22,09,55,19.50
2009,09,22,09,56,19.60
2009,09,22,09,57,19.60
2009,09,22,09,58,19.60
2009,09,22,09,59,19.60
2009,09,22,10,00,19.70
2009,09,22,10,01,19.70
2009,09,22,10,02,19.70
2009,09,22,10,03,19.70
2009,09,22,10,04,19.70
2009,09,22,10,05,19.70
2009,09,22,10,06,19.80
2009,09,22,10,07,19.80
2009,09,22,10,08,19.80
2009,09,22,10,09,19.90
2009,09,22,10,10,19.90
2009,09,22,10,11,19.80
2009,09,22,10,12,19.80
2009,09,22,10,13,19.80
2009,09,22,10,14,19.70
2009,09,22,10,15,19.70
2009,09,22,10,16,19.70
2009,09,22,10,17,19.60
2009,09,22,10,18,19.60
2009,09,22,10,19,19.60
2009,09,22,10,20,19.60
2009,09,22,10,21,19.70
2009,09,22,10,22,19.70
2009,09,22,10,23,19.70
2009,09,22,10,24,19.70
2009,09,22,10,25,19.70
2009,09,22,10,26,19.70
2009,09,22,10,27,19.80
2009,09,22,10,28,19.80
2009,09,22,10,29,19.80
2009,09,22,10,30,19.80
2009,09,22,10,31,19.80
2009,09,22,10,32,19.80
2009,09,22,10,33,19.90
2009,09,22,10,34,19.90
2009,09,22,10,35,19.90
2009,09,22,10,36,20.00
2009,09,22,10,37,20.00
2009,09,22,10,38,20.00
2009,09,22,10,39,19.90
2009,09,22,10,40,20.00
2009,09,22,10,41,20.00
2009,09,22,10,42,20.00
2009,09,22,10,43,20.10
2009,09,22,10,44,20.20
2009,09,22,10,45,20.20
2009,09,22,10,46,20.20
2009,09,22,10,47,20.20
2009,09,22,10,48,20.20
2009,09,22,10,49,20.20
2009,09,22,10,50,20.30
2009,09,22,10,51,20.30
2009,09,22,10,52,20.20
2009,09,22,10,53,20.20
2009,09,22,10,54,20.20
2009,09,22,10,55,20.20
2009,09,22,10,56,20.30
2009,09,22,10,57,20.30
2009,09,22,10,58,20.20
2009,09,22,10,59,20.20
2009,09,22,11,00,20.20
2009,09,22,11,01,20.20
2009,09,22,11,02,20.20
2009,09,22,11,03,20.20
2009,09,22,11,04,20.20
2009,09,22,11,05,20.20
2009,09,22,11,06,20.20
2009,09,22,11,07,20.30
2009,09,22,11,08,20.30
2009,09,22,11,09,20.30
2009,09,22,11,10,20.40
2009,09,22,11,11,20.40
2009,09,22,11,12,20.40
2009,09,22,11,13,20.30
2009,09,22,11,14,20.30
2009,09,22,11,15,20.20
2009,09,22,11,16,20.20
2009,09,22,11,17,20.30
2009,09,22,11,18,20.20
2009,09,22,11,19,20.20
2009,09,22,11,20,20.20
2009,09,22,11,21,20.30
2009,09,22,11,22,20.30
2009,09,22,11,23,20.30
2009,09,22,11,24,20.30
2009,09,22,11,25,20.30
2009,09,22,11,26,20.30
2009,09,22,11,27,20.30
2009,09,22,11,28,20.30
2009,09,22,11,29,20.30
2009,09,22,11,30,20.30
2009,09,22,11,31,20.40
2009,09,22,11,32,20.50
2009,09,22,11,33,20.60
2009,09,22,11,34,20.60
2009,09,22,11,35,20.60
2009,09,22,11,36,20.60
2009,09,22,11,37,20.60
2009,09,22,11,38,20.70
2009,09,22,11,39,20.70
2009,09,22,11,40,20.70
2009,09,22,11,41,20.70
2009,09,22,11,42,20.70
2009,09,22,11,43,20.70
2009,09,22,11,44,20.70
2009,09,22,11,45,20.70
2009,09,22,11,46,20.80
2009,09,22,11,47,20.80
2009,09,22,11,48,20.80
2009,09,22,11,49,20.80
2009,09,22,11,50,20.80
2009,09,22,11,51,20.90
2009,09,22,11,52,20.90
2009,09,22,11,53,20.90
2009,09,22,11,54,20.90
2009,09,22,11,55,21.00
2009,09,22,11,56,21.00
2009,09,22,11,57,21.10
2009,09,22,11,58,21.20
2009,09,22,11,59,21.30
2009,09,22,12,00,21.40
2009,09,22,12,01,21.50
2009,09,22,12,02,21.60
2009,09,22,12,03,21.60
2009,09,22,12,04,21.70
2009,09,22,12,05,21.70
2009,09,22,12,06,21.80
2009,09,22,12,07,21.80
2009,09,22,12,08,21.80
2009,09,22,12,09,21.90
2009,09,22,12,10,21.90
2009,09,22,12,11,21.90
2009,09,22,12,12,21.90
2009,09,22,12,13,21.90
2009,09,22,12,14,22.00
2009,09,22,12,15,22.00
2009,09,22,12,16,22.00
2009,09,22,12,17,22.00
2009,09,22,12,18,22.00
2009,09,22,12,19,21.90
2009,09,22,12,20,21.80
2009,09,22,12,21,21.80
2009,09,22,12,22,21.80
2009,09,22,12,23,21.70
2009,09,22,12,24,21.70
2009,09,22,12,25,21.70
2009,09,22,12,26,21.70
2009,09,22,12,27,21.70
2009,09,22,12,28,21.70
2009,09,22,12,29,21.70
2009,09,22,12,30,21.60
2009,09,22,12,31,21.60
2009,09,22,12,32,21.60
2009,09,22,12,33,21.50
2009,09,22,12,34,21.50
2009,09,22,12,35,21.50
2009,09,22,12,36,21.50
2009,09,22,12,37,21.60
2009,09,22,12,38,21.60
2009,09,22,12,39,21.60
2009,09,22,12,40,21.70
2009,09,22,12,41,21.70
2009,09,22,12,42,21.70
2009,09,22,12,43,21.80
2009,09,22,12,44,21.80
2009,09,22,12,45,21.80
2009,09,22,12,46,21.80
2009,09,22,12,47,21.80
2009,09,22,12,48,21.80
2009,09,22,12,49,21.90
2009,09,22,12,50,21.90
2009,09,22,12,51,21.90
2009,09,22,12,52,21.90
2009,09,22,12,53,22.00
2009,09,22,12,54,22.00
2009,09,22,12,55,22.00
2009,09,22,12,56,22.10
2009,09,22,12,57,22.10
2009,09,22,12,58,22.10
2009,09,22,12,59,22.20
2009,09,22,13,00,22.30
2009,09,22,13,01,22.30
2009,09,22,13,02,22.30
2009,09,22,13,03,22.30
2009,09,22,13,04,22.30
2009,09,22,13,05,22.40
2009,09,22,13,06,22.40
2009,09,22,13,07,22.40
2009,09,22,13,08,22.40
2009,09,22,13,09,22.30
2009,09,22,13,10,22.30
2009,09,22,13,11,22.20
2009,09,22,13,12,22.20
2009,09,22,13,13,22.20
2009,09,22,13,14,22.10
2009,09,22,13,15,22.10
2009,09,22,13,16,22.10
2009,09,22,13,17,22.20
2009,09,22,13,18,22.20
2009,09,22,13,19,22.20
2009,09,22,13,20,22.20
2009,09,22,13,21,22.20
2009,09,22,13,22,22.30
2009,09,22,13,23,22.30
2009,09,22,13,24,22.40
2009,09,22,13,25,22.40
2009,09,22,13,26,22.40
2009,09,22,13,27,22.30
2009,09,22,13,28,22.30
2009,09,22,13,29,22.30
2009,09,22,13,30,22.30
2009,09,22,13,31,22.30
2009,09,22,13,32,22.40
2009,09,22,13,33,22.30
2009,09,22,13,34,22.40
2009,09,22,13,35,22.40
2009,09,22,13,36,22.50
2009,09,22,13,37,22.60
2009,09,22,13,38,22.60
2009,09,22,13,39,22.70
2009,09,22,13,40,22.80
2009,09,22,13,41,22.80
2009,09,22,13,42,22.80
2009,09,22,13,43,22.90
2009,09,22,13,44,22.90
2009,09,22,13,45,22.90
2009,09,22,13,46,22.90
2009,09,22,13,47,22.90
2009,09,22,13,48,22.90
2009,09,22,13,49,22.90
2009,09,22,13,50,23.00
2009,09,22,13,51,23.00
2009,09,22,13,52,23.10
2009,09,22,13,53,23.10
2009,09,22,13,54,23.10
2009,09,22,13,55,23.10
2009,09,22,13,56,23.20
2009,09,22,13,57,23.20
2009,09,22,13,58,23.20
2009,09,22,13,59,23.20
2009,09,22,14,00,23.20
2009,09,22,14,01,23.20
2009,09,22,14,02,23.20
2009,09,22,14,03,23.20
2009,09,22,14,04,23.30
2009,09,22,14,05,23.40
2009,09,22,14,06,23.40
2009,09,22,14,07,23.40
2009,09,22,14,08,23.40
2009,09,22,14,09,23.40
2009,09,22,14,10,23.40
2009,09,22,14,11,23.50
2009,09,22,14,12,23.50
2009,09,22,14,13,23.50
2009,09,22,14,14,23.60
2009,09,22,14,15,23.60
2009,09,22,14,16,23.50
2009,09,22,14,17,23.50
2009,09,22,14,18,23.60
2009,09,22,14,19,23.60
2009,09,22,14,20,23.60
2009,09,22,14,21,23.50
2009,09,22,14,22,23.50
2009,09,22,14,23,23.60
2009,09,22,14,24,23.50
2009,09,22,14,25,23.50
2009,09,22,14,26,23.40
2009,09,22,14,27,23.40
2009,09,22,14,28,23.40
2009,09,22,14,29,23.50
2009,09,22,14,30,23.50
2009,09,22,14,31,23.60
2009,09,22,14,32,23.60
2009,09,22,14,33,23.70
2009,09,22,14,34,23.70
2009,09,22,14,35,23.70
2009,09,22,14,36,23.70
2009,09,22,14,37,23.80
2009,09,22,14,38,23.80
2009,09,22,14,39,23.80
2009,09,22,14,40,23.80
2009,09,22,14,41,23.70
2009,09,22,14,42,23.70
2009,09,22,14,43,23.70
2009,09,22,14,44,23.70
2009,09,22,14,45,23.80
2009,09,22,14,46,23.80
2009,09,22,14,47,23.90
2009,09,22,14,48,23.90
2009,09,22,14,49,23.90
2009,09,22,14,50,23.90
2009,09,22,14,51,23.90
2009,09,22,14,52,24.00
2009,09,22,14,53,24.00
2009,09,22,14,54,24.00
2009,09,22,14,55,24.00
2009,09,22,14,56,24.00
2009,09,22,14,57,24.00
2009,09,22,14,58,24.00
2009,09,22,14,59,24.00
2009,09,22,15,00,24.00
2009,09,22,15,01,24.00
2009,09,22,15,02,24.00
2009,09,22,15,03,23.90
2009,09,22,15,04,23.90
2009,09,22,15,05,23.90
2009,09,22,15,06,23.80
2009,09,22,15,07,23.80
2009,09,22,15,08,23.80
2009,09,22,15,09,23.80
2009,09,22,15,10,23.90
2009,09,22,15,11,23.90
2009,09,22,15,12,23.90
2009,09,22,15,13,23.90
2009,09,22,15,14,23.90
2009,09,22,15,15,24.00
2009,09,22,15,16,24.00
2009,09,22,15,17,24.00
2009,09,22,15,18,24.10
2009,09,22,15,19,24.10
2009,09,22,15,20,24.10
2009,09,22,15,21,24.10
2009,09,22,15,22,24.10
2009,09,22,15,23,24.10
2009,09,22,15,24,24.10
2009,09,22,15,25,24.10
2009,09,22,15,26,24.00
2009,09,22,15,27,24.00
2009,09,22,15,28,24.00
2009,09,22,15,29,23.90
2009,09,22,15,30,24.00
2009,09,22,15,31,24.00
2009,09,22,15,32,24.10
2009,09,22,15,33,24.10
2009,09,22,15,34,24.10
2009,09,22,15,35,24.10
2009,09,22,15,36,24.10
2009,09,22,15,37,24.10
2009,09,22,15,38,24.10
2009,09,22,15,39,24.10
2009,09,22,15,40,24.10
2009,09,22,15,41,24.10
2009,09,22,15,42,24.10
2009,09,22,15,43,24.00
2009,09,22,15,44,24.00
2009,09,22,15,45,24.00
2009,09,22,15,46,24.10
2009,09,22,15,47,24.10
2009,09,22,15,48,24.10
2009,09,22,15,49,24.10
2009,09,22,15,50,24.10
2009,09,22,15,51,24.10
2009,09,22,15,52,24.10
2009,09,22,15,53,24.10
2009,09,22,15,54,24.10
2009,09,22,15,55,24.10
2009,09,22,15,56,24.10
2009,09,22,15,57,24.10
2009,09,22,15,58,24.10
2009,09,22,15,59,24.10
2009,09,22,16,00,24.10
2009,09,22,16,01,24.10
2009,09,22,16,02,24.20
2009,09,22,16,03,24.30
2009,09,22,16,04,24.30
2009,09,22,16,05,24.30
2009,09,22,16,06,24.30
2009,09,22,16,07,24.30
2009,09,22,16,08,24.30
2009,09,22,16,09,24.30
2009,09,22,16,10,24.30
2009,09,22,16,11,24.30
2009,09,22,16,12,24.30
2009,09,22,16,13,24.30
2009,09,22,16,14,24.30
2009,09,22,16,15,24.30
2009,09,22,16,16,24.30
2009,09,22,16,17,24.20
2009,09,22,16,18,24.20
2009,09,22,16,19,24.20
2009,09,22,16,20,24.20
2009,09,22,16,21,24.20
2009,09,22,16,22,24.20
2009,09,22,16,23,24.20
2009,09,22,16,24,24.20
2009,09,22,16,25,24.20
2009,09,22,16,26,24.20
2009,09,22,16,27,24.20
2009,09,22,16,28,24.30
2009,09,22,16,29,24.30
2009,09,22,16,30,24.30
2009,09,22,16,31,24.30
2009,09,22,16,32,24.30
2009,09,22,16,33,24.30
2009,09,22,16,34,24.30
2009,09,22,16,35,24.30
2009,09,22,16,36,24.30
2009,09,22,16,37,24.30
2009,09,22,16,38,24.30
2009,09,22,16,39,24.30
2009,09,22,16,40,24.30
2009,09,22,16,41,24.30
2009,09,22,16,42,24.30
2009,09,22,16,43,24.40
2009,09,22,16,44,24.40
2009,09,22,16,45,24.40
2009,09,22,16,46,24.40
2009,09,22,16,47,24.40
2009,09,22,16,48,24.40
2009,09,22,16,49,24.40
2009,09,22,16,50,24.40
2009,09,22,16,51,24.40
2009,09,22,16,52,24.40
2009,09,22,16,53,24.50
2009,09,22,16,54,24.50
2009,09,22,16,55,24.60
2009,09,22,16,56,24.60
2009,09,22,16,57,24.60
2009,09,22,16,58,24.60
2009,09,22,16,59,24.50
2009,09,22,17,00,24.50
2009,09,22,17,01,24.50
2009,09,22,17,02,24.50
2009,09,22,17,03,24.50
2009,09,22,17,04,24.50
2009,09,22,17,05,24.40
2009,09,22,17,06,24.40
2009,09,22,17,07,24.40
2009,09,22,17,08,24.40
2009,09,22,17,09,24.40
2009,09,22,17,10,24.40
2009,09,22,17,11,24.40
2009,09,22,17,12,24.40
2009,09,22,17,13,24.30
2009,09,22,17,14,24.30
2009,09,22,17,15,24.30
2009,09,22,17,16,24.20
2009,09,22,17,17,24.20
2009,09,22,17,18,24.20
2009,09,22,17,19,24.10